Location: Marineo
(37.9500°N, 13.4170°E)
Time: 04:24:56
(UTC+02:00)

ISS - Visible Passes

Search period start: 17 October 2019 00:00
Search period end: 27 October 2019 00:00
Orbit: 411 x 421 km, 51.6° (Epoch: 16 October)

Date Brightness Start Highest point End Pass type
(mag) Time Alt. Az. Time Alt. Az. Time Alt. Az.
22 Oct -1.3 06:48:10 10° S 06:50:59 25° SE 06:53:49 10° ENE visible
23 Oct -0.7 06:00:45 10° SSE 06:02:35 14° SE 06:04:25 10° E visible
24 Oct -3.7 06:47:03 10° SW 06:50:24 82° SE 06:53:46 10° NE visible
25 Oct -2.6 05:59:35 17° SSW 06:01:53 42° SE 06:05:05 10° ENE visible
26 Oct -1.4 05:13:53 22° ESE 05:13:53 22° ESE 05:16:09 10° ENE visible
26 Oct -3.0 06:46:54 10° W 06:50:02 35° NNW 06:53:10 10° NE visible
